Вернуться в каталог

OPS 0856 DEB

LostPO
NORAD 23838·DEBRIS·🇺🇸 United States

Запущен Aug 19, 1966 с Vandenberg Space Force Base

Loading…

Ближайшие Пролёты (ближайшие 24 часа)

TLE

УстаревшееSource: Space-Track

Эпоха: Jun 14, 2009, 12:44 UTC

1 23838U 66077K   09165.53107625 +.00000007 +00000-0 +10000-3 0  9991
2 23838 087.7563 182.8860 1017861 082.4215 288.6825 08.84962651441626

Отслеживайте OPS 0856 DEB в реальном времени с AllMySat

Download on the App Store